Location: Unspecified
(0.0000°N, 0.0000°E)
Time: 22:23:51
(UTC+00:00)

Envisat - Pass Details

Date: 05 June 2020
Orbit: 764 x 766 km, 98.1° (Epoch: 19 September)

Event Time Altitude Azimuth Distance (km) Brightness Sun altitude
Rises 18:52:54 0° 197° (SSW) 3,228 6.2 -12.5°
Reaches altitude 10° 18:55:54 10° 216° (SW) 2,299 5.6 -13.2°
Maximum altitude 18:59:15 18° 257° (WSW) 1,806 5.7 -14.0°
Drops below altitude 10° 19:02:37 10° 300° (WNW) 2,293 6.9 -14.7°
Sets 19:05:37 0° 318° (NW) 3,215 7.5 -15.4°
